Weather in Oruro

Bolivia     17°58′17″S   67°05′36″W
temp.,
°C
wind,
m/s
gust,
m/s
humid.,
%
clouds,
%
prec.,
mm/h
press.,
hPa
HPBL,
m
11 may, tue
tue1123:00+8ese11615 0.0 101815
02:00+6ne22705 0.0 101821
05:00+5ne22715 0.0 101813
08:00+6nnw226135 0.0 1021194
11:00+11nnw33460 0.0 1017886
14:00+15wnw46315 0.0 10102135
17:00+15wnw562618 0.0 10072629
20:00+8s376461 0.2 1017348
12 may, wed
wed1223:00+8nne22605 0.0 101623
02:00+6sse116680 0.0 101610
05:00+5w117319 0.0 101710
08:00+6w11696 0.0 1019149
11:00+11wnw22507 0.0 10161228
14:00+13nw5439100 0.1 10111992
17:00+11nne4452100 0.0 1011688
20:00+8nne2365100 0.4 101541
13 may, thu
thu1323:00+7s227265 0.3 1017196
02:00+6s128086 0.3 1018128
05:00+5ne118452 0.0 101820
08:00+6nne11786 0.0 1020190
11:00+11w685070 0.1 10181644
14:00+14w8113192 0.2 10112860
17:00+13sw773364 0.0 10111894
20:00+10sw410358 0.0 1016444
14 may, fri
fri1423:00+6s224448 0.0 102016
02:00+4s335195 0.0 102227
05:00+3se1156100 0.0 102210
08:00+5s014473 0.0 102383
11:00+9wsw333359 0.0 10201005
14:00+12w5526100 0.0 10151730
17:00+12sw462632 0.0 10132378
20:00+8se44326 0.0 101639
15 may, sat
sat1523:00+6ene113591 0.0 101810
02:00+5w1142100 0.0 101910
05:00+4ssw1243100 0.0 102012
08:00+5s1136100 0.0 102286
11:00+9wsw2225100 0.0 1019878
14:00+13w35220 0.0 10141986
17:00+13sw25170 0.0 10112737
20:00+8sse46280 0.0 101760